Location: Unspecified
(0.0000°N, 0.0000°E)
Time: 08:37:17
(UTC+00:00)

Tiros 1 despin weight - Pass Details

Date: 05 October 2023
Orbit: 583 x 627 km, 48.2° (Epoch: 05 December)

Event Time Altitude Azimuth Distance (km) Brightness Sun altitude
Rises 15:42:14 0° 257° (WSW) 2,908 ? 31.4°
Reaches altitude 10° 15:46:00 10° 288° (WNW) 1,995 ? 30.5°
Maximum altitude 15:47:45 12° 310° (NW) 1,862 ? 30.1°
Drops below altitude 10° 15:49:30 10° 333° (NNW) 1,987 ? 29.6°
Sets 15:53:15 0° 4° (N) 2,881 ? 28.7°
